Location: Big Prairie
(40.6673°N, 82.0952°W)
Time: 20:39:52
(UTC+00:00)

Cosmos 841 Rocket - Pass Details

Date: 03 December 2021
Orbit: 747 x 772 km, 74.0° (Epoch: 16 January)

Event Time Altitude Azimuth Distance (km) Brightness Sun altitude
Rises 23:45:10 0° 215° (SW) 3,194 7.5 -19.2°
Reaches altitude 10° 23:47:37 10° 221° (SW) 2,269 6.7 -19.6°
Maximum altitude 23:52:32 45° 294° (WNW) 1,019 4.5 -20.5°
Drops below altitude 10° 23:57:28 10° 7° (N) 2,273 5.8 -21.4°
Enters shadow 23:57:38 - 8° (N) 2,333 5.8 -21.5°
